This is the latest recevied weather packets stored in our database for station/object OK2JCZ-6. If no packets are shown the sender has not sent any weather packets the latest 10 day(s).
| Time | Temp. | Humidity | Pressure | Rain* | Wind** | Luminosity | Snow |
|---|---|---|---|---|---|---|---|
| 1788519803 | 26.11° C | 35% | 1016.4 hPa | 0 mm | - | - | - |
| 1788519504 | 26.11° C | 35% | 1016.5 hPa | 0 mm | - | - | - |
| 1788519202 | 27.78° C | 33% | 1016.5 hPa | 0 mm | - | - | - |
| 1788518902 | 27.78° C | 33% | 1016.5 hPa | 0 mm | - | - | - |
| 1788518002 | 26.67° C | 35% | 1016.5 hPa | 0 mm | - | - | - |
| 1788517403 | 27.78° C | 35% | 1016.6 hPa | 0 mm | - | - | - |
| 1788517103 | 27.78° C | 34% | 1016.7 hPa | 0 mm | - | - | - |
| 1788516502 | 27.78° C | 33% | 1016.8 hPa | 0 mm | - | - | - |
| 1788516202 | 26.67° C | 35% | 1016.9 hPa | 0 mm | - | - | - |
| 1788515602 | 25.56° C | 36% | 1017.1 hPa | 0 mm | - | - | - |
| 1788515302 | 25.56° C | 36% | 1017.3 hPa | 0 mm | - | - | - |
| 1788515002 | 25° C | 38% | 1017.5 hPa | 0 mm | - | - | - |
| 1788514702 | 25° C | 39% | 1017.6 hPa | 0 mm | - | - | - |
| 1788514402 | 25.56° C | 39% | 1017.7 hPa | 0 mm | - | - | - |
| 1788514102 | 25.56° C | 38% | 1017.7 hPa | 0 mm | - | - | - |
| 1788513802 | 26.11° C | 37% | 1017.8 hPa | 0 mm | - | - | - |
| 1788513503 | 26.11° C | 37% | 1017.8 hPa | 0 mm | - | - | - |
| 1788512603 | 24.44° C | 38% | 1018.1 hPa | 0 mm | - | - | - |
| 1788512303 | 24.44° C | 39% | 1018.2 hPa | 0 mm | - | - | - |
| 1788511702 | 25° C | 39% | 1018.2 hPa | 0 mm | - | - | - |
| 1788511402 | 25.56° C | 38% | 1018.2 hPa | 0 mm | - | - | - |
| 1788511102 | 25.56° C | 37% | 1018.1 hPa | 0 mm | - | - | - |
| 1788510803 | 24.44° C | 38% | 1018.1 hPa | 0 mm | - | - | - |
| 1788510502 | 24.44° C | 39% | 1018.2 hPa | 0 mm | - | - | - |
| 1788510202 | 25° C | 39% | 1018.1 hPa | 0 mm | - | - | - |
* Rain latest hour (hover to see other rain measurements)
** Current wind speed in m/s (hover to see current wind gust speed)